Location: Bjelajci
(45.0103°N, 16.1758°E)
Time: 03:58:22
(UTC+00:00)

IRAS Rocket - Pass Details

Date: 14 July 2020
Orbit: 848 x 877 km, 100.1° (Epoch: 11 August)

Event Time Altitude Azimuth Distance (km) Brightness Sun altitude
Exits shadow 00:12:01 34° 155° (SSE) 1,363 4.9 -21.4°
Maximum altitude 00:14:30 81° 72° (ENE) 865 4.2 -21.3°
Drops below altitude 10° 00:20:01 10° 346° (NNW) 2,490 7.4 -21.0°
Sets 00:22:24 0° 346° (NNW) 3,433 8.3 -20.8°
